Weather History for Fairbanks Ft. Wainwright, AK

Change the Weather History Date:

Monday, April 7, 2014

  Actual Average Record
Temperature  
Mean Temperature 24 °F -  
Max Temperature 28 °F 35 °F 53 °F (2004)
Min Temperature 21 °F 12 °F -7 °F (2013)
Degree Days  
Heating Degree Days 40    
Moisture  
Dew Point 22 °F    
Average Humidity 83    
Maximum Humidity 93    
Minimum Humidity 69    
Precipitation  
Precipitation 0.06 in - - ()
Snow  
Snow 0.00 in - - ()
Snow Depth 17.00 in    
Sea Level Pressure  
Sea Level Pressure 29.42 in    
Wind  
Wind Speed 8 mph (West)    
Max Wind Speed 18 mph    
Max Gust Speed -    
Visibility 2 miles    
Events Snow    
Averages and records for this station are not official NWS values.
T = Trace of Precipitation, MM = Missing Value Source: NWS Daily Summary

Daily Weather History Graph

Daily Weather History Graph

Search for Another Location

Airport:

Trip Planner

Search our weather history database for the weather conditions in past years. The results will help you decide how hot, cold, wet, or windy it might be!

Date:

Astronomy

Apr. 07, 2014 Rise Set
Actual Time 6:44 AM AKDT 9:02 PM AKDT
Civil Twilight 5:50 AM AKDT 9:56 PM AKDT
Nautical Twilight 4:37 AM AKDT 11:10 PM AKDT
Astronomical Twilight 2:26 AM AKDT 1:19 AM AKDT
Moon 11:49 AM AKDT (4/7) 4:47 AM AKDT (4/7)
Length of Visible Light 16h 05m
Length of Day
14h 18m
First Quarter, 55% of the Moon is Illuminated
Apr 7
First Quarter
Apr 14
Full
Apr 21
Last Quarter
Apr 28
New
May 6
First Quarter

Hourly Weather History & Observations

Time (AKDT) Temp. Windchill Dew Point Humidity Pressure Visibility Wind Dir Wind Speed Gust Speed Precip Events Conditions
12:40 AM 28.4 °F 23.3 °F 26.6 °F 93% 29.53 in 3.0 mi SSW 4.6 mph - N/A Snow Light Snow
12:55 AM 28.4 °F 24.6 °F 26.6 °F 93% 29.56 in 3.0 mi WSW 3.5 mph - N/A Snow Light Snow
1:25 AM 28.4 °F 22.2 °F 26.6 °F 93% 29.52 in 2.5 mi WSW 5.8 mph - N/A Snow Light Snow
1:55 AM 28.4 °F 20.4 °F 26.6 °F 93% 29.54 in 3.0 mi SW 8.1 mph - N/A Snow Light Snow
2:50 AM 28.4 °F 22.2 °F 26.6 °F 93% 29.50 in 1.5 mi West 5.8 mph - N/A Snow Light Snow
2:55 AM 28.4 °F 22.2 °F 26.6 °F 93% 29.52 in 1.5 mi West 5.8 mph - N/A Snow Light Snow
3:55 AM 28.4 °F 23.3 °F 24.8 °F 86% 29.51 in 2.0 mi West 4.6 mph - N/A Snow Light Snow
4:45 AM 28.4 °F 23.3 °F 24.8 °F 86% 29.47 in 4.0 mi West 4.6 mph - N/A Snow Light Snow
4:55 AM 28.4 °F 21.2 °F 24.8 °F 86% 29.49 in 3.0 mi WNW 6.9 mph - N/A Snow Light Snow
5:30 AM 28.4 °F 23.3 °F 24.8 °F 86% 29.46 in 6.0 mi NW 4.6 mph - N/A Snow Light Snow
5:55 AM 28.4 °F 24.6 °F 21.2 °F 74% 29.48 in 7.0 mi West 3.5 mph - N/A Snow Light Snow
6:55 AM 26.6 °F 19.1 °F 24.8 °F 93% 29.47 in 5.0 mi WNW 6.9 mph - N/A Snow Light Snow
7:55 AM 26.6 °F 19.1 °F 23.0 °F 86% 29.46 in 5.0 mi West 6.9 mph - N/A Snow Light Snow
8:06 AM 26.6 °F 19.1 °F 23.0 °F 86% 29.43 in 1.5 mi West 6.9 mph - N/A Snow Light Snow
8:13 AM 26.6 °F 19.1 °F 23.0 °F 86% 29.43 in 1.0 mi West 6.9 mph - N/A Snow Light Snow
8:22 AM 26.6 °F 19.1 °F 23.0 °F 86% 29.42 in 0.8 mi West 6.9 mph - N/A Snow Light Snow
8:41 AM 26.6 °F 20.0 °F 23.0 °F 86% 29.42 in 1.5 mi West 5.8 mph - N/A Snow Light Snow
8:55 AM 26.6 °F 19.1 °F 23.0 °F 86% 29.44 in 1.5 mi West 6.9 mph - N/A Snow Light Snow
9:13 AM 26.6 °F 19.1 °F 23.0 °F 86% 29.41 in 2.0 mi West 6.9 mph - N/A Snow Light Snow
9:55 AM 26.6 °F 18.2 °F 23.0 °F 86% 29.43 in 2.0 mi West 8.1 mph - N/A Snow Light Snow
10:35 AM 26.6 °F 19.1 °F 23.0 °F 86% 29.39 in 1.0 mi West 6.9 mph - N/A Snow Light Snow
10:55 AM 28.4 °F 20.4 °F 23.0 °F 80% 29.41 in 1.5 mi West 8.1 mph - N/A Snow Light Snow
11:10 AM 28.4 °F 19.7 °F 23.0 °F 80% 29.39 in 1.2 mi West 9.2 mph - N/A Snow Light Snow
11:55 AM 28.4 °F 18.0 °F 24.8 °F 86% 29.40 in 1.2 mi WNW 12.7 mph - N/A Snow Light Snow
12:05 PM 28.4 °F 18.5 °F 23.0 °F 80% 29.37 in 5.0 mi WNW 11.5 mph - N/A Snow Light Snow
12:45 PM 28.4 °F 19.7 °F 23.0 °F 80% 29.36 in 2.5 mi West 9.2 mph - N/A Snow Light Snow
12:55 PM 28.4 °F 19.1 °F 23.0 °F 80% 29.39 in 2.5 mi West 10.4 mph - N/A Snow Light Snow
1:26 PM 26.6 °F 15.7 °F 21.2 °F 80% 29.36 in 2.5 mi West 12.7 mph - N/A Snow Light Snow
1:55 PM 26.6 °F 15.7 °F 21.2 °F 80% 29.38 in 2.5 mi West 12.7 mph - N/A Snow Light Snow
2:29 PM 26.6 °F 15.7 °F 21.2 °F 80% 29.35 in 1.8 mi WNW 12.7 mph - N/A Snow Light Snow
2:55 PM 26.6 °F 14.7 °F 21.2 °F 80% 29.37 in 1.5 mi West 15.0 mph - N/A Snow Light Snow
3:38 PM 24.8 °F 12.9 °F 19.4 °F 80% 29.34 in 0.8 mi WNW 13.8 mph - N/A Snow Light Snow
3:55 PM 24.8 °F 14.0 °F 19.4 °F 80% 29.37 in 1.0 mi West 11.5 mph - N/A Snow Light Snow
4:39 PM 24.8 °F 11.1 °F 17.6 °F 74% 29.34 in 2.0 mi West 18.4 mph - N/A Snow Light Snow
4:55 PM 24.8 °F 11.1 °F 17.6 °F 74% 29.37 in 3.0 mi WNW 18.4 mph - N/A Snow Light Snow
5:55 PM 24.8 °F 11.1 °F 15.8 °F 69% 29.38 in 3.0 mi WNW 18.4 mph - N/A Snow Light Snow
6:30 PM 23.0 °F 9.6 °F 15.8 °F 74% 29.36 in 2.5 mi WNW 16.1 mph - N/A Snow Light Snow
6:55 PM 23.0 °F 10.1 °F 15.8 °F 74% 29.39 in 2.0 mi WNW 15.0 mph - N/A Snow Light Snow
7:15 PM 21.2 °F 7.8 °F 15.8 °F 80% 29.37 in 1.8 mi WNW 15.0 mph - N/A Snow Light Snow
7:55 PM 21.2 °F 8.3 °F 15.8 °F 80% 29.41 in 2.0 mi West 13.8 mph - N/A Snow Light Snow